Time,TemperatureF,DewpointF,PressureIn,WindDirection,WindDirectionDegrees,WindSpeedMPH,WindSpeedGustMPH,Humidity,HourlyPrecipIn,Conditions,Clouds,dailyrainin,SolarRadiationWatts/m^2,SoftwareType,DateUTC
2013-01-17 00:09:00,31.1,27.0,30.37,NW,309,4.0,-999.0,84,-99.99,,,0.00,0,weatherlink.com 1.10,2013-01-17 06:09:00,
2013-01-17 00:24:00,30.8,27.0,30.38,NNW,340,0.0,-999.0,84,-99.99,,,0.00,0,weatherlink.com 1.10,2013-01-17 06:24:00,
2013-01-17 00:39:00,30.3,26.0,30.38,WNW,290,2.0,-999.0,84,-99.99,,,0.00,0,weatherlink.com 1.10,2013-01-17 06:39:00,
2013-01-17 00:54:00,29.7,26.0,30.40,NW,317,4.0,-999.0,85,-99.99,,,0.00,0,weatherlink.com 1.10,2013-01-17 06:54:00,
2013-01-17 01:09:00,29.4,26.0,30.40,NW,304,1.0,-999.0,86,-99.99,,,0.00,0,weatherlink.com 1.10,2013-01-17 07:09:00,
2013-01-17 01:24:00,29.0,25.0,30.41,West,280,4.0,-999.0,86,-99.99,,,0.00,0,weatherlink.com 1.10,2013-01-17 07:24:00,
2013-01-17 01:39:00,29.2,26.0,30.41,NNW,332,5.0,-999.0,87,-99.99,,,0.00,0,weatherlink.com 1.10,2013-01-17 07:39:00,
2013-01-17 01:54:00,29.8,27.0,30.42,West,276,0.0,-999.0,88,-99.99,,,0.00,0,weatherlink.com 1.10,2013-01-17 07:54:00,
2013-01-17 02:09:00,29.8,26.0,30.42,WNW,283,1.0,-999.0,87,-99.99,,,0.00,0,weatherlink.com 1.10,2013-01-17 08:09:00,
2013-01-17 02:24:00,29.4,26.0,30.42,West,273,1.0,-999.0,86,-99.99,,,0.00,0,weatherlink.com 1.10,2013-01-17 08:24:00,
2013-01-17 02:39:00,28.8,25.0,30.42,WNW,282,4.0,-999.0,87,-99.99,,,0.00,0,weatherlink.com 1.10,2013-01-17 08:39:00,
2013-01-17 02:54:00,28.6,25.0,30.43,West,276,4.0,-999.0,87,-99.99,,,0.00,0,weatherlink.com 1.10,2013-01-17 08:54:00,
2013-01-17 03:10:00,28.7,26.0,30.44,West,281,1.0,-999.0,88,-99.99,,,0.00,0,weatherlink.com 1.10,2013-01-17 09:10:00,
2013-01-17 03:25:00,28.8,26.0,30.44,WNW,285,1.0,-999.0,88,-99.99,,,0.00,0,weatherlink.com 1.10,2013-01-17 09:25:00,
2013-01-17 03:40:00,28.2,25.0,30.44,West,278,2.0,-999.0,88,-99.99,,,0.00,0,weatherlink.com 1.10,2013-01-17 09:40:00,
2013-01-17 03:55:00,27.7,25.0,30.44,WNW,294,1.0,-999.0,88,-99.99,,,0.00,0,weatherlink.com 1.10,2013-01-17 09:55:00,
2013-01-17 04:10:00,27.4,24.0,30.44,NW,317,2.0,-999.0,88,-99.99,,,0.00,0,weatherlink.com 1.10,2013-01-17 10:10:00,
2013-01-17 04:25:00,27.3,25.0,30.44,WNW,302,0.0,-999.0,89,-99.99,,,0.00,0,weatherlink.com 1.10,2013-01-17 10:25:00,
2013-01-17 04:40:00,27.1,24.0,30.45,NW,304,0.0,-999.0,89,-99.99,,,0.00,0,weatherlink.com 1.10,2013-01-17 10:40:00,
2013-01-17 04:55:00,26.8,24.0,30.45,NW,306,1.0,-999.0,89,-99.99,,,0.00,0,weatherlink.com 1.10,2013-01-17 10:55:00,
2013-01-17 05:10:00,26.6,24.0,30.45,WNW,292,1.0,-999.0,89,-99.99,,,0.00,0,weatherlink.com 1.10,2013-01-17 11:10:00,
2013-01-17 05:25:00,25.9,23.0,30.45,WSW,248,1.0,-999.0,89,-99.99,,,0.00,0,weatherlink.com 1.10,2013-01-17 11:25:00,
2013-01-17 05:40:00,25.4,23.0,30.45,WSW,248,1.0,-999.0,89,-99.99,,,0.00,0,weatherlink.com 1.10,2013-01-17 11:40:00,
2013-01-17 05:56:00,24.9,22.0,30.46,WNW,288,0.0,-999.0,89,-99.99,,,0.00,0,weatherlink.com 1.10,2013-01-17 11:56:00,
2013-01-17 06:11:00,24.2,21.0,30.46,SSW,202,1.0,-999.0,88,-99.99,,,0.00,0,weatherlink.com 1.10,2013-01-17 12:11:00,
2013-01-17 06:26:00,23.5,21.0,30.46,SSW,202,0.0,-999.0,88,-99.99,,,0.00,0,weatherlink.com 1.10,2013-01-17 12:26:00,
2013-01-17 06:40:00,23.0,20.0,30.46,SW,223,3.0,-999.0,88,-99.99,,,0.00,0,weatherlink.com 1.10,2013-01-17 12:40:00,
2013-01-17 06:55:00,22.5,20.0,30.46,West,262,3.0,-999.0,89,-99.99,,,0.00,0,weatherlink.com 1.10,2013-01-17 12:55:00,
2013-01-17 07:10:00,23.6,21.0,30.46,West,276,2.0,-999.0,90,-99.99,,,0.00,0,weatherlink.com 1.10,2013-01-17 13:10:00,
2013-01-17 07:25:00,24.4,22.0,30.46,WNW,286,4.0,-999.0,91,-99.99,,,0.00,0,weatherlink.com 1.10,2013-01-17 13:25:00,
2013-01-17 07:40:00,24.8,23.0,30.47,West,261,2.0,-999.0,91,-99.99,,,0.00,0,weatherlink.com 1.10,2013-01-17 13:40:00,
2013-01-17 07:55:00,24.2,22.0,30.47,WSW,249,1.0,-999.0,91,-99.99,,,0.00,9,weatherlink.com 1.10,2013-01-17 13:55:00,
2013-01-17 08:10:00,23.8,22.0,30.48,West,262,2.0,-999.0,91,-99.99,,,0.00,35,weatherlink.com 1.10,2013-01-17 14:10:00,
2013-01-17 08:25:00,24.0,22.0,30.49,SW,218,0.0,-999.0,91,-99.99,,,0.00,84,weatherlink.com 1.10,2013-01-17 14:25:00,
2013-01-17 08:40:00,24.7,23.0,30.50,WSW,242,8.0,-999.0,92,-99.99,,,0.00,132,weatherlink.com 1.10,2013-01-17 14:40:00,
2013-01-17 08:55:00,26.2,24.0,30.51,SW,224,6.0,-999.0,92,-99.99,,,0.00,171,weatherlink.com 1.10,2013-01-17 14:55:00,
2013-01-17 09:10:00,27.5,26.0,30.52,WSW,248,5.0,-999.0,92,-99.99,,,0.00,209,weatherlink.com 1.10,2013-01-17 15:10:00,
2013-01-17 09:25:00,28.7,27.0,30.52,SW,223,3.0,-999.0,92,-99.99,,,0.00,225,weatherlink.com 1.10,2013-01-17 15:25:00,
2013-01-17 09:40:00,30.9,29.0,30.53,SW,225,3.0,-999.0,91,-99.99,,,0.00,258,weatherlink.com 1.10,2013-01-17 15:40:00,
2013-01-17 09:55:00,31.9,29.0,30.54,SW,223,5.0,-999.0,89,-99.99,,,0.00,294,weatherlink.com 1.10,2013-01-17 15:55:00,
2013-01-17 10:11:00,32.9,29.0,30.55,WSW,257,6.0,-999.0,85,-99.99,,,0.00,332,weatherlink.com 1.10,2013-01-17 16:11:00,
2013-01-17 10:26:00,34.1,29.0,30.55,WNW,288,4.0,-999.0,81,-99.99,,,0.00,350,weatherlink.com 1.10,2013-01-17 16:26:00,
2013-01-17 10:41:00,34.4,29.0,30.55,West,269,8.0,-999.0,82,-99.99,,,0.00,274,weatherlink.com 1.10,2013-01-17 16:41:00,
2013-01-17 10:56:00,35.2,30.0,30.54,West,269,8.0,-999.0,80,-99.99,,,0.00,329,weatherlink.com 1.10,2013-01-17 16:56:00,
2013-01-17 11:11:00,36.5,31.0,30.54,West,275,8.0,-999.0,79,-99.99,,,0.00,424,weatherlink.com 1.10,2013-01-17 17:11:00,
2013-01-17 11:26:00,38.0,31.0,30.54,West,267,3.0,-999.0,75,-99.99,,,0.00,424,weatherlink.com 1.10,2013-01-17 17:26:00,
2013-01-17 11:41:00,38.7,31.0,30.53,WNW,298,2.0,-999.0,73,-99.99,,,0.00,455,weatherlink.com 1.10,2013-01-17 17:41:00,
2013-01-17 11:56:00,39.4,31.0,30.53,NNW,336,2.0,-999.0,72,-99.99,,,0.00,461,weatherlink.com 1.10,2013-01-17 17:56:00,
2013-01-17 12:11:00,40.1,31.0,30.52,WNW,296,4.0,-999.0,71,-99.99,,,0.00,445,weatherlink.com 1.10,2013-01-17 18:11:00,
2013-01-17 12:26:00,40.6,32.0,30.50,West,277,6.0,-999.0,72,-99.99,,,0.00,420,weatherlink.com 1.10,2013-01-17 18:26:00,
2013-01-17 12:41:00,40.9,31.0,30.50,NW,321,2.0,-999.0,69,-99.99,,,0.00,397,weatherlink.com 1.10,2013-01-17 18:41:00,
2013-01-17 12:56:00,41.7,33.0,30.49,West,276,6.0,-999.0,70,-99.99,,,0.00,381,weatherlink.com 1.10,2013-01-17 18:56:00,
2013-01-17 13:11:00,42.1,33.0,30.49,WNW,299,4.0,-999.0,69,-99.99,,,0.00,336,weatherlink.com 1.10,2013-01-17 19:11:00,
2013-01-17 13:26:00,42.6,33.0,30.49,NNW,331,2.0,-999.0,69,-99.99,,,0.00,295,weatherlink.com 1.10,2013-01-17 19:26:00,
2013-01-17 13:41:00,42.8,34.0,30.49,NW,309,4.0,-999.0,70,-99.99,,,0.00,292,weatherlink.com 1.10,2013-01-17 19:41:00,
2013-01-17 13:58:00,42.7,34.0,30.49,NW,315,6.0,-999.0,70,-99.99,,,0.00,306,weatherlink.com 1.10,2013-01-17 19:58:00,
2013-01-17 14:11:00,42.9,34.0,30.49,West,267,5.0,-999.0,72,-99.99,,,0.00,374,weatherlink.com 1.10,2013-01-17 20:11:00,
2013-01-17 14:26:00,43.3,34.0,30.48,West,271,7.0,-999.0,70,-99.99,,,0.00,371,weatherlink.com 1.10,2013-01-17 20:26:00,
2013-01-17 14:41:00,43.4,35.0,30.48,WSW,257,6.0,-999.0,71,-99.99,,,0.00,302,weatherlink.com 1.10,2013-01-17 20:41:00,
2013-01-17 14:56:00,43.6,35.0,30.48,West,276,7.0,-999.0,71,-99.99,,,0.00,148,weatherlink.com 1.10,2013-01-17 20:56:00,
2013-01-17 15:13:00,43.9,35.0,30.47,West,269,5.0,-999.0,71,-99.99,,,0.00,90,weatherlink.com 1.10,2013-01-17 21:13:00,
2013-01-17 15:41:00,44.3,35.0,30.46,SW,236,5.0,-999.0,69,-99.99,,,0.00,63,weatherlink.com 1.10,2013-01-17 21:41:00,
2013-01-17 15:57:00,44.2,35.0,30.47,WSW,244,5.0,-999.0,71,-99.99,,,0.00,63,weatherlink.com 1.10,2013-01-17 21:57:00,
2013-01-17 16:12:00,44.0,35.0,30.46,WSW,240,4.0,-999.0,72,-99.99,,,0.00,65,weatherlink.com 1.10,2013-01-17 22:12:00,
2013-01-17 16:27:00,43.5,35.0,30.46,SW,236,3.0,-999.0,72,-99.99,,,0.00,65,weatherlink.com 1.10,2013-01-17 22:27:00,
2013-01-17 16:42:00,42.4,35.0,30.46,SW,233,3.0,-999.0,75,-99.99,,,0.00,51,weatherlink.com 1.10,2013-01-17 22:42:00,
2013-01-17 16:57:00,40.5,34.0,30.46,SW,227,4.0,-999.0,76,-99.99,,,0.00,33,weatherlink.com 1.10,2013-01-17 22:57:00,
2013-01-17 17:12:00,38.1,32.0,30.46,SW,219,4.0,-999.0,77,-99.99,,,0.00,21,weatherlink.com 1.10,2013-01-17 23:12:00,
2013-01-17 17:27:00,36.9,31.0,30.46,SW,214,2.0,-999.0,78,-99.99,,,0.00,5,weatherlink.com 1.10,2013-01-17 23:27:00,
2013-01-17 17:42:00,35.5,31.0,30.46,South,190,1.0,-999.0,82,-99.99,,,0.00,0,weatherlink.com 1.10,2013-01-17 23:42:00,
2013-01-17 17:56:00,35.1,30.0,30.46,South,171,4.0,-999.0,83,-99.99,,,0.00,0,weatherlink.com 1.10,2013-01-17 23:56:00,
2013-01-17 18:12:00,34.4,30.0,30.46,SSE,162,2.0,-999.0,84,-99.99,,,0.00,0,weatherlink.com 1.10,2013-01-18 00:12:00,
2013-01-17 18:27:00,34.6,31.0,30.46,SE,134,4.0,-999.0,86,-99.99,,,0.00,0,weatherlink.com 1.10,2013-01-18 00:27:00,
2013-01-17 18:42:00,34.7,31.0,30.46,East,82,4.0,-999.0,85,-99.99,,,0.00,0,weatherlink.com 1.10,2013-01-18 00:42:00,
2013-01-17 18:57:00,33.5,29.0,30.46,East,101,6.0,-999.0,84,-99.99,,,0.00,0,weatherlink.com 1.10,2013-01-18 00:57:00,
2013-01-17 19:12:00,32.8,29.0,30.46,SE,125,4.0,-999.0,86,-99.99,,,0.00,0,weatherlink.com 1.10,2013-01-18 01:12:00,
2013-01-17 19:27:00,32.4,29.0,30.46,SE,124,6.0,-999.0,86,-99.99,,,0.00,0,weatherlink.com 1.10,2013-01-18 01:27:00,
2013-01-17 19:42:00,31.9,29.0,30.45,ESE,116,6.0,-999.0,88,-99.99,,,0.00,0,weatherlink.com 1.10,2013-01-18 01:42:00,
2013-01-17 19:57:00,32.1,29.0,30.45,ESE,115,6.0,-999.0,89,-99.99,,,0.00,0,weatherlink.com 1.10,2013-01-18 01:57:00,
2013-01-17 20:12:00,31.9,29.0,30.45,SE,127,6.0,-999.0,89,-99.99,,,0.00,0,weatherlink.com 1.10,2013-01-18 02:12:00,
2013-01-17 20:27:00,31.7,29.0,30.44,SE,139,7.0,-999.0,89,-99.99,,,0.00,0,weatherlink.com 1.10,2013-01-18 02:27:00,
2013-01-17 20:42:00,31.3,29.0,30.44,SE,137,7.0,-999.0,89,-99.99,,,0.00,0,weatherlink.com 1.10,2013-01-18 02:42:00,
2013-01-17 20:57:00,30.9,28.0,30.43,SE,142,4.0,-999.0,89,-99.99,,,0.00,0,weatherlink.com 1.10,2013-01-18 02:57:00,
2013-01-17 21:12:00,30.6,28.0,30.43,SE,140,6.0,-999.0,90,-99.99,,,0.00,0,weatherlink.com 1.10,2013-01-18 03:12:00,
2013-01-17 21:27:00,30.5,28.0,30.42,SE,144,7.0,-999.0,90,-99.99,,,0.00,0,weatherlink.com 1.10,2013-01-18 03:27:00,
2013-01-17 21:42:00,30.6,28.0,30.42,SE,136,5.0,-999.0,90,-99.99,,,0.00,0,weatherlink.com 1.10,2013-01-18 03:42:00,
2013-01-17 21:57:00,30.7,28.0,30.41,SSE,147,6.0,-999.0,90,-99.99,,,0.00,0,weatherlink.com 1.10,2013-01-18 03:57:00,
2013-01-17 22:12:00,31.0,29.0,30.41,SE,137,8.0,-999.0,90,-99.99,,,0.00,0,weatherlink.com 1.10,2013-01-18 04:12:00,
2013-01-17 22:43:00,30.8,28.0,30.40,SE,146,7.0,-999.0,90,-99.99,,,0.00,0,weatherlink.com 1.10,2013-01-18 04:43:00,
2013-01-17 22:58:00,30.5,28.0,30.39,SSE,147,7.0,-999.0,89,-99.99,,,0.00,0,weatherlink.com 1.10,2013-01-18 04:58:00,
2013-01-17 23:13:00,30.1,27.0,30.39,SSE,150,7.0,-999.0,89,-99.99,,,0.00,0,weatherlink.com 1.10,2013-01-18 05:13:00,
2013-01-17 23:43:00,29.7,27.0,30.38,South,173,6.0,-999.0,89,-99.99,,,0.00,0,weatherlink.com 1.10,2013-01-18 05:43:00,
2013-01-17 23:57:00,29.6,27.0,30.37,SSE,155,7.0,-999.0,89,-99.99,,,0.00,0,weatherlink.com 1.10,2013-01-18 05:57:00,